Location: Aldenham
(51.6667°N, 0.3500°W)
Time: 15:31:24
(UTC+00:00)

BREEZE-M DEB (TANK) - Pass Details

Date: 18 November 2025
Orbit: 304 x 15914 km, 49.3° (Epoch: 13 December)

Event Time Altitude Azimuth Distance (km) Brightness Sun altitude
Rises 17:25:29 0° 230° (SW) 2,037 6.6 -11.9°
Reaches altitude 10° 17:26:57 10° 220° (SW) 1,339 5.2 -12.1°
Maximum altitude 17:29:18 36° 148° (SSE) 813 3.0 -12.5°
Enters shadow 17:32:22 17° 89° (E) 1,962 4.5 -12.9°
